Location: Navajo
(48.7922°N, 105.0603°W)
Time: 05:12:52
(UTC+00:00)

CUBEBUG 2 - Pass Details

Date: 04 July 2022
Orbit: 584 x 693 km, 97.7° (Epoch: 07 August)

Event Time Altitude Azimuth Distance (km) Brightness Sun altitude
Rises 09:53:14 0° 16° (NNE) 2,840 ? -9.1°
Reaches altitude 10° 09:55:24 10° 19° (NNE) 1,943 ? -8.9°
Maximum altitude 09:59:35 63° 101° (E) 681 ? -8.4°
Drops below altitude 10° 10:03:51 10° 183° (S) 1,981 ? -8.0°
Enters shadow 10:05:01 - 185° (S) 2,464 ? -7.8°
